| time (UTC) | temp C | wind direction | speed KPH | gust KPH | rain 1hr cm | rain 24hr cm | rain mn cm | humidity % | barometer mb |
| 20260505003059 | 9 | 92 | 0.0 | 0.0 | 0.00 | 0.00 | 0.00 | 93 | 1027.9 |
| 20260505001553 | 8 | 92 | 0.0 | 0.0 | 0.00 | 0.00 | 0.00 | 93 | 1027.7 |
| 20260505000050 | 7 | 80 | 0.0 | 0.0 | 0.00 | 0.00 | 0.00 | 93 | 1027.5 |
| 20260504234611 | 6 | 84 | 0.0 | 0.0 | 0.00 | 0.00 | 0.00 | 92 | 1027.5 |
| 20260504233043 | 6 | 86 | 0.0 | 0.0 | 0.00 | 0.00 | 0.00 | 92 | 1027.4 |
| 20260504231551 | 6 | 90 | 0.0 | 0.0 | 0.00 | 0.00 | 0.00 | 91 | 1027.3 |
| 20260504230039 | 6 | 90 | 0.0 | 0.0 | 0.00 | 0.00 | 0.00 | 91 | 1027.2 |
| 20260504224539 | 6 | 90 | 0.0 | 0.0 | 0.00 | 0.00 | 0.00 | 91 | 1027.1 |
| 20260504223039 | 6 | 90 | 0.0 | 0.0 | 0.00 | 0.00 | 0.00 | 91 | 1026.9 |
| 20260504221536 | 6 | 90 | 0.0 | 0.0 | 0.00 | 0.00 | 0.00 | 90 | 1026.9 |
| 20260504220025 | 6 | 90 | 0.0 | 0.0 | 0.00 | 0.00 | 0.00 | 90 | 1026.9 |
| 20260504214533 | 6 | 91 | 0.0 | 0.0 | 0.00 | 0.03 | 0.00 | 90 | 1026.8 |
| 20260504213028 | 6 | 91 | 0.0 | 0.0 | 0.00 | 0.03 | 0.00 | 90 | 1026.7 |
| 20260504211522 | 6 | 91 | 0.0 | 0.0 | 0.00 | 0.03 | 0.00 | 90 | 1026.7 |
| 20260504210021 | 6 | 92 | 0.0 | 0.0 | 0.00 | 0.03 | 0.00 | 91 | 1026.8 |
| 20260504204549 | 6 | 91 | 0.0 | 0.0 | 0.00 | 0.03 | 0.00 | 90 | 1026.8 |
| 20260504203024 | 6 | 91 | 0.0 | 0.0 | 0.00 | 0.03 | 0.00 | 90 | 1026.9 |
| 20260504201518 | 6 | 91 | 0.0 | 0.0 | 0.00 | 0.03 | 0.00 | 90 | 1026.7 |
| 20260504200016 | 6 | 92 | 0.0 | 0.0 | 0.00 | 0.03 | 0.00 | 88 | 1026.5 |
| 20260504194513 | 6 | 92 | 0.0 | 0.0 | 0.00 | 0.03 | 0.00 | 89 | 1026.5 |
| 20260504193021 | 6 | 92 | 0.0 | 0.0 | 0.00 | 0.03 | 0.00 | 88 | 1026.6 |
| 20260504191510 | 7 | 92 | 0.0 | 0.0 | 0.00 | 0.03 | 0.00 | 89 | 1026.6 |
| 20260504190010 | 7 | 92 | 0.0 | 0.0 | 0.00 | 0.03 | 0.00 | 87 | 1026.8 |
| 20260504184507 | 7 | 92 | 0.0 | 0.0 | 0.00 | 0.03 | 0.00 | 88 | 1026.7 |
| 20260504183005 | 7 | 92 | 0.0 | 0.0 | 0.00 | 0.03 | 0.00 | 88 | 1026.7 |
| 20260504181508 | 7 | 92 | 0.0 | 0.0 | 0.00 | 0.03 | 0.00 | 87 | 1026.7 |
| 20260504180001 | 7 | 92 | 0.0 | 0.0 | 0.00 | 0.03 | 0.00 | 87 | 1026.8 |
| 20260504174600 | 7 | 92 | 0.0 | 0.0 | 0.00 | 0.03 | 0.00 | 86 | 1026.9 |
| 20260504173101 | 8 | 92 | 0.0 | 0.0 | 0.00 | 0.03 | 0.00 | 86 | 1026.8 |
| 20260504171557 | 8 | 92 | 0.0 | 0.0 | 0.00 | 0.03 | 0.00 | 83 | 1026.8 |
| 20260504081529 | 19 | 111 | 6.4 | 11.3 | 0.00 | 0.03 | 0.03 | 55 | 1025.8 |
| 20260504044602 | 17 | 109 | 4.8 | 14.5 | 0.00 | 0.03 | 0.03 | 62 | 1027.0 |
| 20260504043054 | 17 | 76 | 8.0 | 14.5 | 0.00 | 0.03 | 0.03 | 62 | 1027.2 |
| 20260504041552 | 16 | 80 | 4.8 | 19.3 | 0.00 | 0.03 | 0.03 | 66 | 1027.5 |
| 20260504040051 | 16 | 100 | 6.4 | 14.5 | 0.00 | 0.03 | 0.03 | 66 | 1027.8 |
| 20260504034606 | 16 | 113 | 8.0 | 17.7 | 0.00 | 0.03 | 0.03 | 67 | 1028.0 |
| 20260504033049 | 16 | 60 | 6.4 | 16.1 | 0.00 | 0.03 | 0.03 | 66 | 1028.3 |
| 20260504031548 | 15 | 58 | 8.0 | 17.7 | 0.00 | 0.03 | 0.03 | 70 | 1028.5 |
| 20260504030046 | 16 | 49 | 8.0 | 17.7 | 0.00 | 0.03 | 0.03 | 69 | 1028.6 |
| 20260504024543 | 15 | 58 | 11.3 | 20.9 | 0.00 | 0.03 | 0.03 | 70 | 1028.7 |
| 20260504023042 | 15 | 56 | 6.4 | 17.7 | 0.00 | 0.03 | 0.03 | 71 | 1029.0 |
| 20260504021541 | 15 | 104 | 8.0 | 17.7 | 0.00 | 0.03 | 0.03 | 72 | 1028.9 |
| 20260504020039 | 15 | 42 | 9.7 | 17.7 | 0.00 | 0.03 | 0.03 | 73 | 1029.1 |
| 20260504014550 | 15 | 92 | 11.3 | 19.3 | 0.00 | 0.03 | 0.03 | 74 | 1029.0 |
| 20260504013035 | 14 | 99 | 12.9 | 19.3 | 0.00 | 0.03 | 0.03 | 76 | 1029.0 |
| 20260504011531 | 13 | 53 | 6.4 | 16.1 | 0.00 | 0.03 | 0.03 | 80 | 1029.1 |
| 20260504010026 | 12 | 45 | 8.0 | 14.5 | 0.00 | 0.03 | 0.03 | 84 | 1029.3 |
| 20260504004523 | 11 | 65 | 1.6 | 4.8 | 0.00 | 0.03 | 0.03 | 92 | 1029.4 |